No particular awareness of the weather is required.    There are no Weather-warnings


Meteo18 Weather Cam more information Meteo18 Weather Cam


Thunder radar more information blitzortung!


Rain radar more information rain snow radar


Visit our other weather sites:

Template documentation
and downloads

And another site



Weather Underground History page Text

Daily Summary for October 13, 2016 Units:  Metric    English   Both
« Previous Day
Next Day »
Daily Weekly Monthly Yearly Custom
  High: Low: Average:
Temperature: 11.1 °C 5.1 °C 8.5 °C
Dew Point: 9.9 °C 2.1 °C 6.5 °C
Humidity: 95 % 68 % 88 %
Wind Speed: 16.1 km/h 0.0 km/h 4.4 km/h
Wind Gust: 22.5 km/h - -
Wind:- - ENE
Pressure: 1010.0 hPa 1003.6 hPa -
Precipitation: 3.3 mm    
Historical Graphs
 
 
Tabular Data for October 13, 2016
Time Temperature Dew Point Pressure Wind Wind Speed Wind Gust Humidity Rainfall Rate (Hourly)
00:02 7.6 °C 2.1 °C 1010.0 hPa NE 8.0 km/h 16.1 km/h 68 % 0.0 mm
00:12 7.5 °C 2.2 °C 1009.7 hPa NE 12.9 km/h 20.9 km/h 69 % 0.0 mm
00:17 7.4 °C 2.1 °C 1009.7 hPa NE 16.1 km/h 20.9 km/h 69 % 0.0 mm
00:22 7.4 °C 2.1 °C 1009.7 hPa NNE 11.3 km/h 20.9 km/h 69 % 0.0 mm
00:27 7.4 °C 2.1 °C 1009.7 hPa NNE 8.0 km/h 22.5 km/h 69 % 0.0 mm
00:32 7.4 °C 2.1 °C 1009.4 hPa NE 9.7 km/h 22.5 km/h 69 % 0.0 mm
00:37 7.4 °C 2.3 °C 1009.4 hPa NNE 6.4 km/h 22.5 km/h 70 % 0.0 mm
00:42 7.3 °C 2.2 °C 1009.4 hPa ENE 4.8 km/h 20.9 km/h 70 % 0.0 mm
00:47 7.2 °C 2.1 °C 1009.4 hPa NNE 11.3 km/h 17.7 km/h 70 % 0.0 mm
00:57 7.2 °C 2.1 °C 1009.4 hPa North 4.8 km/h 16.1 km/h 70 % 0.0 mm
01:02 7.2 °C 2.3 °C 1009.4 hPa NNE 9.7 km/h 16.1 km/h 71 % 0.0 mm
01:07 7.2 °C 2.3 °C 1009.4 hPa NE 11.3 km/h 16.1 km/h 71 % 0.0 mm
01:12 7.1 °C 2.2 °C 1009.4 hPa ENE 3.2 km/h 14.5 km/h 71 % 0.0 mm
01:17 6.9 °C 2.2 °C 1009.0 hPa NNE 8.0 km/h 14.5 km/h 72 % 0.0 mm
01:22 6.9 °C 2.2 °C 1009.0 hPa NE 9.7 km/h 14.5 km/h 72 % 0.0 mm
01:27 6.9 °C 2.2 °C 1009.0 hPa NNE 6.4 km/h 12.9 km/h 72 % 0.0 mm
01:32 6.9 °C 2.2 °C 1009.0 hPa NNE 8.0 km/h 12.9 km/h 72 % 0.0 mm
01:37 6.9 °C 2.2 °C 1009.0 hPa NNE 6.4 km/h 12.9 km/h 72 % 0.0 mm
01:42 6.9 °C 2.2 °C 1009.0 hPa North 3.2 km/h 16.1 km/h 72 % 0.0 mm
01:47 6.9 °C 2.4 °C 1008.7 hPa NNW 6.4 km/h 16.1 km/h 73 % 0.0 mm
01:52 6.9 °C 2.4 °C 1008.7 hPa NNW 4.8 km/h 16.1 km/h 73 % 0.0 mm
01:57 6.8 °C 2.3 °C 1008.7 hPa NE 4.8 km/h 12.9 km/h 73 % 0.0 mm
02:02 6.7 °C 2.2 °C 1008.7 hPa NNE 1.6 km/h 11.3 km/h 73 % 0.0 mm
02:07 6.6 °C 2.3 °C 1008.7 hPa Calm   11.3 km/h 74 % 0.0 mm
02:12 6.5 °C 2.2 °C 1008.7 hPa North 3.2 km/h 9.7 km/h 74 % 0.0 mm
02:17 6.4 °C 2.3 °C 1008.4 hPa ENE 1.6 km/h 9.7 km/h 75 % 0.0 mm
02:22 6.4 °C 2.3 °C 1008.4 hPa North 1.6 km/h 9.7 km/h 75 % 0.0 mm
02:27 6.4 °C 2.3 °C 1008.4 hPa Calm   9.7 km/h 75 % 0.0 mm
02:32 6.3 °C 2.2 °C 1008.4 hPa Calm   8.0 km/h 75 % 0.0 mm
02:37 6.3 °C 2.4 °C 1008.4 hPa NNE 4.8 km/h 8.0 km/h 76 % 0.0 mm
02:42 6.2 °C 2.3 °C 1008.4 hPa Calm   6.4 km/h 76 % 0.0 mm
02:47 6.1 °C 2.2 °C 1008.4 hPa NE 4.8 km/h 6.4 km/h 76 % 0.0 mm
02:52 6.0 °C 2.3 °C 1008.4 hPa NE 4.8 km/h 6.4 km/h 77 % 0.0 mm
02:57 6.0 °C 2.3 °C 1008.4 hPa NNE 8.0 km/h 8.0 km/h 77 % 0.0 mm
03:02 6.1 °C 2.4 °C 1008.4 hPa NNE 9.7 km/h 11.3 km/h 77 % 0.0 mm
03:07 6.2 °C 2.5 °C 1008.0 hPa NE 8.0 km/h 12.9 km/h 77 % 0.0 mm
03:12 6.2 °C 2.5 °C 1008.0 hPa NNE 6.4 km/h 12.9 km/h 77 % 0.0 mm
03:17 6.2 °C 2.5 °C 1008.0 hPa NNE 9.7 km/h 12.9 km/h 77 % 0.0 mm
03:22 6.1 °C 2.4 °C 1008.0 hPa NE 4.8 km/h 11.3 km/h 77 % 0.0 mm
03:27 6.1 °C 2.6 °C 1008.0 hPa NE 6.4 km/h 11.3 km/h 78 % 0.0 mm
03:37 6.0 °C 2.5 °C 1008.0 hPa North 11.3 km/h 19.3 km/h 78 % 0.0 mm
03:47 5.9 °C 2.5 °C 1007.7 hPa NE 9.7 km/h 16.1 km/h 79 % 0.0 mm
03:57 5.8 °C 2.4 °C 1007.7 hPa NNE 11.3 km/h 14.5 km/h 79 % 0.0 mm
04:02 5.8 °C 2.4 °C 1007.7 hPa NE 8.0 km/h 14.5 km/h 79 % 0.0 mm
04:07 5.8 °C 2.4 °C 1007.3 hPa NE 8.0 km/h 16.1 km/h 79 % 0.0 mm
04:12 5.7 °C 2.5 °C 1007.3 hPa NE 8.0 km/h 16.1 km/h 80 % 0.0 mm
04:17 5.7 °C 2.5 °C 1007.3 hPa NE 8.0 km/h 16.1 km/h 80 % 0.0 mm
04:22 5.6 °C 2.4 °C 1007.3 hPa NE 9.7 km/h 14.5 km/h 80 % 0.0 mm
04:27 5.6 °C 2.4 °C 1007.3 hPa NNE 9.7 km/h 14.5 km/h 80 % 0.0 mm
04:32 5.5 °C 2.3 °C 1007.3 hPa NE 11.3 km/h 12.9 km/h 80 % 0.0 mm
04:37 5.4 °C 2.4 °C 1007.3 hPa NE 8.0 km/h 12.9 km/h 81 % 0.0 mm
04:42 5.4 °C 2.4 °C 1007.3 hPa NNE 12.9 km/h 12.9 km/h 81 % 0.0 mm
04:47 5.4 °C 2.4 °C 1007.3 hPa NE 8.0 km/h 12.9 km/h 81 % 0.0 mm
04:52 5.3 °C 2.3 °C 1007.3 hPa NNE 8.0 km/h 12.9 km/h 81 % 0.0 mm
05:12 5.1 °C 2.5 °C 1007.0 hPa NNE 4.8 km/h 14.5 km/h 83 % 0.0 mm
05:17 5.2 °C 2.5 °C 1007.0 hPa NE 4.8 km/h 9.7 km/h 83 % 0.0 mm
05:22 5.2 °C 2.5 °C 1007.0 hPa NE 6.4 km/h 9.7 km/h 83 % 0.0 mm
05:32 5.2 °C 2.5 °C 1007.0 hPa NE 6.4 km/h 11.3 km/h 83 % 0.0 mm
05:37 5.2 °C 2.5 °C 1007.0 hPa NNE 6.4 km/h 11.3 km/h 83 % 0.0 mm
05:42 5.3 °C 2.6 °C 1007.0 hPa NE 6.4 km/h 12.9 km/h 83 % 0.0 mm
05:47 5.4 °C 2.7 °C 1007.0 hPa NE 8.0 km/h 12.9 km/h 83 % 0.0 mm
05:52 5.4 °C 2.7 °C 1006.7 hPa NNE 4.8 km/h 14.5 km/h 83 % 0.0 mm
06:02 5.6 °C 2.8 °C 1006.7 hPa NNE 8.0 km/h 14.5 km/h 82 % 0.0 mm
06:12 5.6 °C 2.8 °C 1006.7 hPa NE 6.4 km/h 11.3 km/h 82 % 0.0 mm
06:17 5.7 °C 2.9 °C 1006.7 hPa NE 4.8 km/h 11.3 km/h 82 % 0.0 mm
06:22 5.8 °C 3.0 °C 1006.7 hPa ENE 6.4 km/h 11.3 km/h 82 % 0.0 mm
06:27 5.9 °C 3.1 °C 1006.7 hPa NE 11.3 km/h 11.3 km/h 82 % 0.0 mm
06:32 6.0 °C 3.2 °C 1006.7 hPa NE 8.0 km/h 11.3 km/h 82 % 0.0 mm
06:37 6.1 °C 3.1 °C 1006.7 hPa NNE 6.4 km/h 12.9 km/h 81 % 0.0 mm
06:42 6.2 °C 3.2 °C 1006.3 hPa NE 8.0 km/h 12.9 km/h 81 % 0.0 mm
06:52 6.3 °C 3.3 °C 1006.3 hPa NE 8.0 km/h 12.9 km/h 81 % 0.0 mm
06:57 6.3 °C 3.3 °C 1006.3 hPa NNE 3.2 km/h 11.3 km/h 81 % 0.0 mm
07:02 6.3 °C 3.3 °C 1006.3 hPa NE 4.8 km/h 11.3 km/h 81 % 0.0 mm
07:12 6.2 °C 3.4 °C 1006.3 hPa Calm   11.3 km/h 82 % 0.0 mm
07:17 6.1 °C 3.6 °C 1006.3 hPa Calm   9.7 km/h 84 % 0.0 mm
07:22 6.0 °C 3.7 °C 1006.3 hPa Calm   8.0 km/h 85 % 0.0 mm
07:32 5.8 °C 3.6 °C 1006.3 hPa North 1.6 km/h 4.8 km/h 86 % 0.0 mm
07:42 5.8 °C 4.0 °C 1006.3 hPa Calm   4.8 km/h 88 % 0.0 mm
07:47 5.8 °C 4.0 °C 1006.3 hPa North 1.6 km/h 3.2 km/h 88 % 0.0 mm
07:52 5.8 °C 4.0 °C 1006.3 hPa Calm   3.2 km/h 88 % 0.3 mm
08:02 5.8 °C 4.1 °C 1006.0 hPa Calm   3.2 km/h 89 % 0.3 mm
08:12 5.8 °C 4.3 °C 1006.0 hPa Calm   3.2 km/h 90 % 0.3 mm
08:17 5.8 °C 4.3 °C 1006.0 hPa Calm   4.8 km/h 90 % 0.3 mm
08:22 5.9 °C 4.4 °C 1006.0 hPa NE 3.2 km/h 4.8 km/h 90 % 0.3 mm
08:37 5.9 °C 4.4 °C 1006.0 hPa NE 3.2 km/h 6.4 km/h 90 % 0.5 mm
08:42 5.9 °C 4.5 °C 1006.0 hPa NNE 6.4 km/h 6.4 km/h 91 % 0.5 mm
08:52 6.0 °C 4.6 °C 1006.0 hPa Calm   6.4 km/h 91 % 0.5 mm
08:57 6.1 °C 4.9 °C 1006.0 hPa NE 3.2 km/h 8.0 km/h 92 % 0.5 mm
09:02 6.2 °C 5.0 °C 1006.0 hPa NE 1.6 km/h 8.0 km/h 92 % 0.5 mm
09:12 6.3 °C 5.1 °C 1006.3 hPa NE 1.6 km/h 8.0 km/h 92 % 0.5 mm
09:17 6.3 °C 5.1 °C 1006.3 hPa NNE 3.2 km/h 6.4 km/h 92 % 0.5 mm
09:22 6.4 °C 5.2 °C 1006.3 hPa NNE 1.6 km/h 4.8 km/h 92 % 0.8 mm
09:27 6.4 °C 5.2 °C 1006.3 hPa NNE 1.6 km/h 4.8 km/h 92 % 0.8 mm
09:32 6.4 °C 5.2 °C 1006.3 hPa NE 3.2 km/h 4.8 km/h 92 % 0.8 mm
09:37 6.6 °C 5.5 °C 1006.3 hPa NE 3.2 km/h 6.4 km/h 93 % 0.8 mm
09:42 6.6 °C 5.5 °C 1006.3 hPa NE 9.7 km/h 9.7 km/h 93 % 0.8 mm
09:52 6.7 °C 5.6 °C 1006.3 hPa NNE 4.8 km/h 9.7 km/h 93 % 0.8 mm
09:57 6.8 °C 5.9 °C 1006.0 hPa NE 3.2 km/h 9.7 km/h 94 % 0.8 mm
10:02 6.9 °C 6.0 °C 1006.0 hPa NNW 1.6 km/h 8.0 km/h 94 % 0.8 mm
10:12 7.1 °C 6.2 °C 1006.0 hPa ENE 1.6 km/h 8.0 km/h 94 % 0.5 mm
10:17 7.2 °C 6.3 °C 1006.0 hPa NE 3.2 km/h 6.4 km/h 94 % 0.5 mm
10:22 7.2 °C 6.3 °C 1006.0 hPa NNE 4.8 km/h 6.4 km/h 94 % 0.5 mm
10:27 7.2 °C 6.3 °C 1006.0 hPa NE 4.8 km/h 9.7 km/h 94 % 0.5 mm
10:32 7.3 °C 6.4 °C 1006.0 hPa NE 3.2 km/h 9.7 km/h 94 % 0.5 mm
10:37 7.3 °C 6.4 °C 1006.3 hPa NNE 4.8 km/h 11.3 km/h 94 % 0.5 mm
10:42 7.4 °C 6.7 °C 1006.0 hPa NNE 1.6 km/h 11.3 km/h 95 % 0.5 mm
10:47 7.6 °C 6.9 °C 1006.0 hPa NE 3.2 km/h 11.3 km/h 95 % 0.8 mm
10:52 7.7 °C 6.9 °C 1006.0 hPa NE 1.6 km/h 8.0 km/h 95 % 0.5 mm
10:57 7.9 °C 7.1 °C 1006.0 hPa NE 4.8 km/h 8.0 km/h 95 % 0.8 mm
11:02 8.1 °C 7.3 °C 1006.0 hPa ENE 4.8 km/h 9.7 km/h 95 % 0.8 mm
11:07 8.2 °C 7.4 °C 1006.0 hPa NE 4.8 km/h 11.3 km/h 95 % 0.8 mm
11:12 8.3 °C 7.5 °C 1006.0 hPa NNE 3.2 km/h 11.3 km/h 95 % 0.8 mm
11:17 8.3 °C 7.4 °C 1006.0 hPa ENE 4.8 km/h 11.3 km/h 94 % 0.5 mm
11:22 8.3 °C 7.4 °C 1006.0 hPa NE 4.8 km/h 8.0 km/h 94 % 0.5 mm
11:27 8.3 °C 7.4 °C 1006.0 hPa NE 6.4 km/h 8.0 km/h 94 % 0.5 mm
11:32 8.3 °C 7.4 °C 1006.0 hPa NE 4.8 km/h 8.0 km/h 94 % 0.5 mm
11:42 8.3 °C 7.4 °C 1006.0 hPa NE 4.8 km/h 9.7 km/h 94 % 0.5 mm
11:52 8.3 °C 7.4 °C 1006.0 hPa NE 6.4 km/h 9.7 km/h 94 % 0.3 mm
12:02 8.4 °C 7.6 °C 1005.6 hPa NE 8.0 km/h 11.3 km/h 95 % 0.0 mm
12:12 8.4 °C 7.5 °C 1006.0 hPa NE 4.8 km/h 11.3 km/h 94 % 0.0 mm
12:22 8.6 °C 7.8 °C 1005.6 hPa NNE 11.3 km/h 12.9 km/h 95 % 0.0 mm
12:32 8.7 °C 7.8 °C 1005.6 hPa NNE 4.8 km/h 12.9 km/h 94 % 0.0 mm
12:37 8.8 °C 8.0 °C 1005.6 hPa NE 4.8 km/h 12.9 km/h 95 % 0.0 mm
12:42 8.8 °C 8.0 °C 1005.6 hPa NNE 4.8 km/h 12.9 km/h 95 % 0.0 mm
12:52 8.9 °C 8.1 °C 1005.6 hPa NE 4.8 km/h 8.0 km/h 95 % 0.3 mm
13:02 9.1 °C 8.3 °C 1005.6 hPa NE 4.8 km/h 9.7 km/h 95 % 0.3 mm
13:12 9.3 °C 8.5 °C 1005.3 hPa North 8.0 km/h 9.7 km/h 95 % 0.3 mm
13:17 9.5 °C 8.7 °C 1005.3 hPa ENE 3.2 km/h 11.3 km/h 95 % 0.3 mm
13:22 9.7 °C 8.9 °C 1005.3 hPa ENE 6.4 km/h 11.3 km/h 95 % 0.3 mm
13:27 9.8 °C 9.0 °C 1005.3 hPa ENE 3.2 km/h 9.7 km/h 95 % 0.3 mm
13:32 9.9 °C 9.0 °C 1005.3 hPa NE 6.4 km/h 9.7 km/h 94 % 0.3 mm
13:37 10.0 °C 8.9 °C 1005.3 hPa ENE 1.6 km/h 9.7 km/h 93 % 0.3 mm
13:42 10.0 °C 8.9 °C 1005.3 hPa ENE 3.2 km/h 9.7 km/h 93 % 0.0 mm
13:47 10.1 °C 9.0 °C 1005.3 hPa NNE 4.8 km/h 8.0 km/h 93 % 0.0 mm
13:52 10.1 °C 9.0 °C 1005.3 hPa NE 4.8 km/h 8.0 km/h 93 % 0.0 mm
13:57 10.2 °C 9.1 °C 1005.3 hPa ENE 8.0 km/h 8.0 km/h 93 % 0.0 mm
14:02 10.2 °C 9.1 °C 1005.0 hPa NNE 3.2 km/h 9.7 km/h 93 % 0.0 mm
14:12 10.3 °C 9.2 °C 1005.0 hPa ENE 8.0 km/h 9.7 km/h 93 % 0.0 mm
14:17 10.4 °C 9.3 °C 1005.0 hPa East 4.8 km/h 20.9 km/h 93 % 0.0 mm
14:22 10.4 °C 9.3 °C 1005.0 hPa East 4.8 km/h 20.9 km/h 93 % 0.0 mm
14:27 10.4 °C 9.3 °C 1005.0 hPa ENE 3.2 km/h 20.9 km/h 93 % 0.0 mm
14:32 10.6 °C 9.5 °C 1005.0 hPa East 4.8 km/h 12.9 km/h 93 % 0.0 mm
14:37 10.6 °C 9.5 °C 1004.6 hPa ENE 4.8 km/h 12.9 km/h 93 % 0.0 mm
14:42 10.7 °C 9.5 °C 1004.6 hPa ENE 9.7 km/h 12.9 km/h 92 % 0.0 mm
14:47 10.7 °C 9.5 °C 1004.6 hPa East 4.8 km/h 12.9 km/h 92 % 0.0 mm
14:52 10.8 °C 9.6 °C 1004.6 hPa ENE 4.8 km/h 12.9 km/h 92 % 0.0 mm
14:57 10.8 °C 9.7 °C 1004.6 hPa East 1.6 km/h 9.7 km/h 93 % 0.0 mm
15:02 10.8 °C 9.6 °C 1004.6 hPa Calm   9.7 km/h 92 % 0.0 mm
15:12 10.9 °C 9.8 °C 1004.6 hPa ENE 4.8 km/h 8.0 km/h 93 % 0.0 mm
15:17 10.9 °C 9.7 °C 1004.6 hPa East 3.2 km/h 8.0 km/h 92 % 0.0 mm
15:22 10.9 °C 9.7 °C 1004.6 hPa ENE 3.2 km/h 12.9 km/h 92 % 0.0 mm
15:27 10.9 °C 9.7 °C 1004.6 hPa NE 3.2 km/h 12.9 km/h 92 % 0.0 mm
15:32 10.9 °C 9.7 °C 1004.6 hPa East 4.8 km/h 12.9 km/h 92 % 0.0 mm
15:37 11.0 °C 9.8 °C 1004.3 hPa East 1.6 km/h 8.0 km/h 92 % 0.0 mm
15:42 11.0 °C 9.8 °C 1004.3 hPa ENE 4.8 km/h 9.7 km/h 92 % 0.0 mm
15:47 11.0 °C 9.8 °C 1004.3 hPa ENE 6.4 km/h 14.5 km/h 92 % 0.0 mm
15:57 11.1 °C 9.8 °C 1004.3 hPa ENE 3.2 km/h 14.5 km/h 92 % 0.0 mm
16:07 11.1 °C 9.8 °C 1003.9 hPa ENE 4.8 km/h 14.5 km/h 92 % 0.0 mm
16:12 11.1 °C 9.8 °C 1003.9 hPa East 3.2 km/h 14.5 km/h 92 % 0.3 mm
16:17 11.1 °C 9.8 °C 1003.9 hPa ENE 4.8 km/h 14.5 km/h 92 % 0.3 mm
16:22 11.1 °C 9.8 °C 1003.9 hPa ESE 4.8 km/h 11.3 km/h 92 % 0.3 mm
16:32 11.1 °C 9.8 °C 1003.9 hPa East 8.0 km/h 11.3 km/h 92 % 0.3 mm
16:37 11.1 °C 9.8 °C 1003.9 hPa ENE 4.8 km/h 12.9 km/h 92 % 0.3 mm
16:42 11.1 °C 9.8 °C 1003.9 hPa East 4.8 km/h 12.9 km/h 92 % 0.3 mm
16:47 11.1 °C 9.8 °C 1003.9 hPa East 6.4 km/h 9.7 km/h 92 % 0.5 mm
16:52 11.0 °C 9.8 °C 1003.9 hPa East 3.2 km/h 11.3 km/h 92 % 0.5 mm
16:57 11.0 °C 9.8 °C 1003.9 hPa ESE 1.6 km/h 11.3 km/h 92 % 0.5 mm
17:02 11.0 °C 9.9 °C 1003.9 hPa ENE 6.4 km/h 9.7 km/h 93 % 0.5 mm
17:07 11.0 °C 9.9 °C 1003.9 hPa East 3.2 km/h 9.7 km/h 93 % 0.5 mm
17:12 11.0 °C 9.9 °C 1003.9 hPa SE 1.6 km/h 8.0 km/h 93 % 0.3 mm
17:17 11.0 °C 9.9 °C 1003.9 hPa ENE 1.6 km/h 8.0 km/h 93 % 0.3 mm
17:22 10.9 °C 9.8 °C 1003.9 hPa East 6.4 km/h 8.0 km/h 93 % 0.3 mm
17:27 10.9 °C 9.8 °C 1003.9 hPa ESE 3.2 km/h 8.0 km/h 93 % 0.3 mm
17:32 10.9 °C 9.8 °C 1003.6 hPa ESE 3.2 km/h 9.7 km/h 93 % 0.3 mm
17:37 10.9 °C 9.8 °C 1003.6 hPa SE 3.2 km/h 12.9 km/h 93 % 0.5 mm
17:42 10.9 °C 9.8 °C 1003.6 hPa ENE 3.2 km/h 12.9 km/h 93 % 0.3 mm
17:47 10.9 °C 9.8 °C 1003.6 hPa ESE 6.4 km/h 12.9 km/h 93 % 0.3 mm
17:57 10.9 °C 9.8 °C 1003.6 hPa East 9.7 km/h 11.3 km/h 93 % 0.3 mm
18:02 10.9 °C 9.8 °C 1003.6 hPa ENE 3.2 km/h 11.3 km/h 93 % 0.3 mm
18:07 10.8 °C 9.7 °C 1003.6 hPa East 4.8 km/h 11.3 km/h 93 % 0.3 mm
18:12 10.8 °C 9.7 °C 1003.6 hPa ENE 4.8 km/h 11.3 km/h 93 % 0.3 mm
18:17 10.8 °C 9.7 °C 1003.6 hPa East 4.8 km/h 11.3 km/h 93 % 0.3 mm
18:22 10.7 °C 9.6 °C 1003.6 hPa East 3.2 km/h 9.7 km/h 93 % 0.3 mm
18:32 10.7 °C 9.6 °C 1003.9 hPa ESE 3.2 km/h 9.7 km/h 93 % 0.3 mm
18:42 10.7 °C 9.6 °C 1003.9 hPa SSE 1.6 km/h 12.9 km/h 93 % 0.3 mm
18:47 10.6 °C 9.5 °C 1003.6 hPa ESE 4.8 km/h 12.9 km/h 93 % 0.3 mm
18:52 10.7 °C 9.6 °C 1003.9 hPa ENE 8.0 km/h 12.9 km/h 93 % 0.3 mm
18:57 10.7 °C 9.6 °C 1003.9 hPa ESE 4.8 km/h 9.7 km/h 93 % 0.3 mm
19:02 10.7 °C 9.6 °C 1003.9 hPa East 3.2 km/h 14.5 km/h 93 % 0.3 mm
19:07 10.6 °C 9.4 °C 1003.9 hPa ESE 3.2 km/h 14.5 km/h 92 % 0.3 mm
19:12 10.6 °C 9.5 °C 1003.9 hPa Calm   11.3 km/h 93 % 0.3 mm
19:17 10.6 °C 9.5 °C 1003.9 hPa ESE 3.2 km/h 11.3 km/h 93 % 0.3 mm
19:22 10.6 °C 9.5 °C 1003.9 hPa East 3.2 km/h 11.3 km/h 93 % 0.3 mm
19:32 10.6 °C 9.5 °C 1003.9 hPa ENE 1.6 km/h 12.9 km/h 93 % 0.0 mm
19:37 10.5 °C 9.4 °C 1003.9 hPa ENE 4.8 km/h 12.9 km/h 93 % 0.0 mm
19:47 10.5 °C 9.4 °C 1003.9 hPa ENE 3.2 km/h 9.7 km/h 93 % 0.0 mm
19:52 10.4 °C 9.5 °C 1003.9 hPa East 4.8 km/h 8.0 km/h 94 % 0.0 mm
19:57 10.4 °C 9.5 °C 1003.9 hPa East 1.6 km/h 6.4 km/h 94 % 0.0 mm
20:02 10.3 °C 9.4 °C 1003.9 hPa Calm   6.4 km/h 94 % 0.0 mm
20:07 10.3 °C 9.4 °C 1003.9 hPa Calm   6.4 km/h 94 % 0.0 mm
20:17 10.3 °C 9.4 °C 1003.9 hPa ENE 3.2 km/h 6.4 km/h 94 % 0.0 mm
20:22 10.3 °C 9.4 °C 1003.9 hPa Calm   6.4 km/h 94 % 0.0 mm
20:27 10.3 °C 9.4 °C 1003.9 hPa East 3.2 km/h 6.4 km/h 94 % 0.0 mm
20:32 10.2 °C 9.3 °C 1003.9 hPa Calm   4.8 km/h 94 % 0.0 mm
20:42 10.2 °C 9.3 °C 1003.9 hPa East 1.6 km/h 4.8 km/h 94 % 0.0 mm
20:52 10.2 °C 9.3 °C 1003.9 hPa ENE 1.6 km/h 4.8 km/h 94 % 0.0 mm
20:57 10.2 °C 9.3 °C 1003.9 hPa East 1.6 km/h 4.8 km/h 94 % 0.0 mm
21:02 10.2 °C 9.3 °C 1003.9 hPa ENE 1.6 km/h 4.8 km/h 94 % 0.0 mm
21:07 10.2 °C 9.3 °C 1003.9 hPa Calm   4.8 km/h 94 % 0.0 mm
21:12 10.2 °C 9.3 °C 1003.9 hPa ENE 1.6 km/h 4.8 km/h 94 % 0.0 mm
21:22 10.3 °C 9.2 °C 1003.9 hPa ESE 3.2 km/h 4.8 km/h 93 % 0.0 mm
21:27 10.3 °C 9.2 °C 1003.9 hPa ENE 1.6 km/h 4.8 km/h 93 % 0.0 mm
21:32 10.3 °C 9.2 °C 1003.9 hPa East 1.6 km/h 4.8 km/h 93 % 0.0 mm
21:37 10.3 °C 9.2 °C 1003.9 hPa SE 1.6 km/h 6.4 km/h 93 % 0.0 mm
21:42 10.3 °C 9.2 °C 1003.9 hPa ENE 4.8 km/h 6.4 km/h 93 % 0.0 mm
21:52 10.3 °C 9.2 °C 1003.9 hPa ENE 1.6 km/h 6.4 km/h 93 % 0.0 mm
21:57 10.3 °C 9.2 °C 1003.9 hPa ENE 1.6 km/h 6.4 km/h 93 % 0.0 mm
22:02 10.3 °C 9.2 °C 1003.9 hPa ESE 4.8 km/h 6.4 km/h 93 % 0.0 mm
22:07 10.3 °C 9.2 °C 1003.9 hPa Calm   6.4 km/h 93 % 0.0 mm
22:12 10.3 °C 9.2 °C 1003.9 hPa ENE 1.6 km/h 6.4 km/h 93 % 0.0 mm
22:17 10.3 °C 9.2 °C 1003.9 hPa Calm   8.0 km/h 93 % 0.0 mm
22:22 10.3 °C 9.2 °C 1003.6 hPa ESE 1.6 km/h 8.0 km/h 93 % 0.0 mm
22:27 10.3 °C 9.2 °C 1003.9 hPa ENE 1.6 km/h 4.8 km/h 93 % 0.0 mm
22:32 10.3 °C 9.2 °C 1003.9 hPa SE 1.6 km/h 6.4 km/h 93 % 0.0 mm
22:37 10.3 °C 9.2 °C 1003.6 hPa ENE 1.6 km/h 6.4 km/h 93 % 0.0 mm
22:42 10.3 °C 9.2 °C 1003.9 hPa ENE 1.6 km/h 6.4 km/h 93 % 0.0 mm
22:47 10.3 °C 9.2 °C 1003.9 hPa ENE 1.6 km/h 8.0 km/h 93 % 0.0 mm
22:52 10.3 °C 9.2 °C 1003.9 hPa East 1.6 km/h 8.0 km/h 93 % 0.0 mm
22:57 10.3 °C 9.2 °C 1003.9 hPa Calm   8.0 km/h 93 % 0.0 mm
23:07 10.2 °C 9.1 °C 1003.9 hPa Calm   3.2 km/h 93 % 0.0 mm
23:12 10.2 °C 9.1 °C 1003.9 hPa Calm   3.2 km/h 93 % 0.0 mm
23:17 10.2 °C 9.1 °C 1003.6 hPa East 1.6 km/h 4.8 km/h 93 % 0.0 mm
23:22 10.2 °C 9.1 °C 1003.6 hPa Calm   4.8 km/h 93 % 0.0 mm
23:27 10.2 °C 9.1 °C 1003.6 hPa ESE 1.6 km/h 4.8 km/h 93 % 0.0 mm
23:32 10.1 °C 9.0 °C 1003.6 hPa Calm   3.2 km/h 93 % 0.0 mm
23:37 10.1 °C 9.0 °C 1003.6 hPa ESE 1.6 km/h 1.6 km/h 93 % 0.0 mm
23:42 10.1 °C 9.0 °C 1003.6 hPa Calm   3.2 km/h 93 % 0.0 mm
23:47 10.1 °C 9.0 °C 1003.6 hPa Calm   3.2 km/h 93 % 0.0 mm
23:52 10.0 °C 8.9 °C 1003.6 hPa Calm   3.2 km/h 93 % 0.0 mm
23:57 9.9 °C 8.8 °C 1003.6 hPa Calm   3.2 km/h 93 % 0.0 mm
Meteo18
Compliments of Weather Underground - 4 mb

Script developed by  Jim McMurry - jmcmurry@mwt.net Adapted for the template by  Wim van der Kuil - Leuven-Template.eu

You find our weather info also at:

European Weather Network

Weather Underground

Equipment we use:

Weather-station
Davis Vue

Weather-program
Meteohub

Weather-server
Raspberry PI 2 B+

Provider
1 and 1

Davis Vue

Meteohub

Raspberry PI 2 B+

1 and 1